Tabellarische Ansicht des 7.2.2014


Die einzelnen Werte des Tages

Uhrzeit Temperatur Luftdruck Luftfeuchte Wind Hi-Wind Taupunkt THW Index Wind Chill Heat Index Solar- strahlung Regen

00:00

6.4 C

992.5 hpa

77 %

16.1 km/h aus 116

27.4 km/h aus SSE

2.7 C

3.1 C

3.2 C

6.3 C

0 W/m

0.00 mm

00:05

6.5 C

992.5 hpa

77 %

16.1 km/h aus 114

25.7 km/h aus ESE

2.8 C

3.1 C

3.3 C

6.3 C

0 W/m

0.00 mm

00:10

6.5 C

992.5 hpa

77 %

12.9 km/h aus 116

20.9 km/h aus SE

2.8 C

3.7 C

3.9 C

6.3 C

0 W/m

0.00 mm

00:15

6.5 C

992.1 hpa

77 %

16.1 km/h aus 117

27.4 km/h aus E

2.8 C

3.1 C

3.3 C

6.3 C

0 W/m

0.00 mm

00:20

6.6 C

992.1 hpa

77 %

17.7 km/h aus 116

25.7 km/h aus ESE

2.8 C

2.9 C

3.1 C

6.4 C

0 W/m

0.00 mm

00:25

6.6 C

992.1 hpa

77 %

14.5 km/h aus 117

25.7 km/h aus SE

2.8 C

3.5 C

3.7 C

6.4 C

0 W/m

0.00 mm

00:30

6.7 C

992.0 hpa

77 %

16.1 km/h aus 117

30.6 km/h aus SE

2.9 C

3.3 C

3.5 C

6.5 C

0 W/m

0.00 mm

00:35

6.7 C

992.0 hpa

77 %

14.5 km/h aus 117

25.7 km/h aus SE

2.9 C

3.6 C

3.8 C

6.5 C

0 W/m

0.00 mm

00:40

6.8 C

992.0 hpa

77 %

19.3 km/h aus 117

29.0 km/h aus SE

3.0 C

2.9 C

3.1 C

6.6 C

0 W/m

0.00 mm

00:45

6.9 C

991.5 hpa

78 %

19.3 km/h aus 118

32.2 km/h aus SSE

3.4 C

3.2 C

3.3 C

6.8 C

0 W/m

0.00 mm

00:50

7.0 C

991.5 hpa

78 %

16.1 km/h aus 117

30.6 km/h aus SE

3.4 C

3.7 C

3.9 C

6.8 C

0 W/m

0.00 mm

00:55

7.1 C

991.5 hpa

77 %

16.1 km/h aus 117

37.0 km/h aus SSE

3.3 C

3.9 C

4.1 C

6.9 C

0 W/m

0.00 mm

01:00

7.2 C

991.1 hpa

77 %

14.5 km/h aus 117

27.4 km/h aus E

3.4 C

4.2 C

4.4 C

7.0 C

0 W/m

0.00 mm

01:05

7.2 C

991.1 hpa

77 %

14.5 km/h aus 116

27.4 km/h aus ESE

3.4 C

4.2 C

4.4 C

7.0 C

0 W/m

0.00 mm

01:10

7.2 C

991.1 hpa

77 %

14.5 km/h aus 117

25.7 km/h aus ESE

3.4 C

4.2 C

4.4 C

7.0 C

0 W/m

0.00 mm

01:15

7.2 C

991.0 hpa

77 %

12.9 km/h aus 117

27.4 km/h aus SE

3.5 C

4.6 C

4.8 C

7.1 C

0 W/m

0.00 mm

01:20

7.2 C

991.0 hpa

77 %

16.1 km/h aus 117

30.6 km/h aus SSE

3.5 C

4.0 C

4.2 C

7.1 C

0 W/m

0.00 mm

01:25

7.2 C

991.0 hpa

77 %

12.9 km/h aus 117

20.9 km/h aus SE

3.5 C

4.6 C

4.8 C

7.1 C

0 W/m

0.00 mm

01:30

7.2 C

990.9 hpa

77 %

16.1 km/h aus 117

27.4 km/h aus SSE

3.5 C

4.0 C

4.2 C

7.1 C

0 W/m

0.00 mm

01:35

7.3 C

990.9 hpa

77 %

14.5 km/h aus 117

22.5 km/h aus SSE

3.5 C

4.3 C

4.5 C

7.1 C

0 W/m

0.00 mm

01:40

7.4 C

990.9 hpa

76 %

17.7 km/h aus 116

29.0 km/h aus E

3.4 C

3.9 C

4.1 C

7.2 C

0 W/m

0.00 mm

01:45

7.4 C

990.5 hpa

76 %

14.5 km/h aus 118

27.4 km/h aus SSE

3.5 C

4.5 C

4.7 C

7.2 C

0 W/m

0.00 mm

01:50

7.6 C

990.5 hpa

76 %

16.1 km/h aus 116

24.1 km/h aus SSE

3.6 C

4.3 C

4.6 C

7.3 C

0 W/m

0.00 mm

01:55

7.6 C

990.5 hpa

75 %

14.5 km/h aus 116

27.4 km/h aus SE

3.5 C

4.7 C

4.9 C

7.4 C

0 W/m

0.00 mm

02:00

7.7 C

990.1 hpa

75 %

14.5 km/h aus 116

24.1 km/h aus SSE

3.5 C

4.8 C

5.0 C

7.4 C

0 W/m

0.00 mm

02:05

7.7 C

990.1 hpa

75 %

12.9 km/h aus 117

24.1 km/h aus S

3.6 C

5.2 C

5.4 C

7.5 C

0 W/m

0.00 mm

02:10

7.7 C

990.1 hpa

74 %

16.1 km/h aus 117

27.4 km/h aus SE

3.4 C

4.5 C

4.7 C

7.5 C

0 W/m

0.00 mm

02:15

7.8 C

989.9 hpa

74 %

14.5 km/h aus 117

27.4 km/h aus ESE

3.4 C

4.9 C

5.1 C

7.6 C

0 W/m

0.00 mm

02:20

7.8 C

989.9 hpa

74 %

14.5 km/h aus 117

22.5 km/h aus SSE

3.4 C

4.9 C

5.1 C

7.6 C

0 W/m

0.00 mm

02:25

7.8 C

989.9 hpa

74 %

14.5 km/h aus 117

25.7 km/h aus SSE

3.4 C

4.9 C

5.1 C

7.6 C

0 W/m

0.00 mm

02:30

7.8 C

989.4 hpa

74 %

14.5 km/h aus 117

27.4 km/h aus S

3.4 C

4.9 C

5.1 C

7.6 C

0 W/m

0.00 mm

02:35

7.8 C

989.4 hpa

74 %

17.7 km/h aus 117

27.4 km/h aus SSE

3.5 C

4.4 C

4.6 C

7.6 C

0 W/m

0.00 mm

02:40

7.9 C

989.4 hpa

73 %

17.7 km/h aus 116

35.4 km/h aus SE

3.4 C

4.5 C

4.7 C

7.7 C

0 W/m

0.00 mm

02:45

7.9 C

989.0 hpa

73 %

14.5 km/h aus 117

20.9 km/h aus SE

3.4 C

5.1 C

5.3 C

7.7 C

0 W/m

0.00 mm

02:50

8.0 C

989.0 hpa

76 %

19.3 km/h aus 118

33.8 km/h aus SE

4.0 C

4.4 C

4.6 C

7.8 C

0 W/m

0.00 mm

02:55

8.1 C

989.0 hpa

73 %

19.3 km/h aus 116

35.4 km/h aus SSE

3.6 C

4.4 C

4.7 C

7.9 C

0 W/m

0.00 mm

03:00

8.2 C

989.0 hpa

72 %

22.5 km/h aus 117

32.2 km/h aus SSE

3.4 C

4.1 C

4.3 C

7.9 C

0 W/m

0.00 mm

03:05

8.2 C

989.0 hpa

72 %

25.7 km/h aus 117

37.0 km/h aus SE

3.5 C

3.8 C

4.1 C

8.0 C

0 W/m

0.00 mm

03:10

8.2 C

989.0 hpa

73 %

27.4 km/h aus 116

38.6 km/h aus SSE

3.7 C

3.7 C

3.9 C

8.0 C

0 W/m

0.00 mm

03:15

8.2 C

989.3 hpa

74 %

25.7 km/h aus 116

37.0 km/h aus SSE

3.9 C

3.8 C

4.1 C

8.0 C

0 W/m

0.00 mm

03:20

8.1 C

989.3 hpa

74 %

24.1 km/h aus 116

35.4 km/h aus SSE

3.8 C

3.8 C

4.1 C

7.9 C

0 W/m

0.00 mm

03:25

8.0 C

989.3 hpa

75 %

22.5 km/h aus 117

29.0 km/h aus SSE

3.8 C

3.9 C

4.1 C

7.8 C

0 W/m

0.00 mm

03:30

7.9 C

989.0 hpa

75 %

20.9 km/h aus 117

32.2 km/h aus SSE

3.8 C

4.1 C

4.3 C

7.7 C

0 W/m

0.00 mm

03:35

7.9 C

989.0 hpa

75 %

16.1 km/h aus 117

27.4 km/h aus SSE

3.7 C

4.7 C

4.9 C

7.7 C

0 W/m

0.25 mm

03:40

7.8 C

989.0 hpa

75 %

16.1 km/h aus 115

30.6 km/h aus SE

3.7 C

4.6 C

4.8 C

7.6 C

0 W/m

0.00 mm

03:45

7.8 C

988.5 hpa

76 %

17.7 km/h aus 115

32.2 km/h aus SE

3.8 C

4.3 C

4.6 C

7.6 C

0 W/m

0.00 mm

03:50

7.8 C

988.5 hpa

75 %

14.5 km/h aus 117

32.2 km/h aus SSE

3.6 C

4.9 C

5.1 C

7.6 C

0 W/m

0.00 mm

03:55

7.8 C

988.5 hpa

75 %

11.3 km/h aus 118

20.9 km/h aus SSE

3.7 C

5.6 C

5.8 C

7.6 C

0 W/m

0.00 mm

04:00

7.8 C

987.9 hpa

75 %

11.3 km/h aus 117

19.3 km/h aus SE

3.6 C

5.6 C

5.8 C

7.6 C

0 W/m

0.00 mm

04:05

7.8 C

987.9 hpa

75 %

12.9 km/h aus 117

19.3 km/h aus SE

3.6 C

5.2 C

5.4 C

7.6 C

0 W/m

0.00 mm

04:10

7.8 C

987.9 hpa

75 %

12.9 km/h aus 117

20.9 km/h aus SE

3.6 C

5.2 C

5.4 C

7.6 C

0 W/m

0.00 mm

04:15

7.8 C

988.2 hpa

75 %

17.7 km/h aus 117

25.7 km/h aus SE

3.6 C

4.3 C

4.6 C

7.6 C

0 W/m

0.00 mm

04:20

7.8 C

988.2 hpa

75 %

17.7 km/h aus 116

33.8 km/h aus SSE

3.6 C

4.3 C

4.6 C

7.6 C

0 W/m

0.00 mm

04:25

7.8 C

988.2 hpa

75 %

20.9 km/h aus 116

29.0 km/h aus SE

3.6 C

3.8 C

4.1 C

7.6 C

0 W/m

0.00 mm

04:30

7.8 C

988.1 hpa

75 %

16.1 km/h aus 117

25.7 km/h aus SSE

3.6 C

4.6 C

4.8 C

7.6 C

0 W/m

0.00 mm

04:35

7.8 C

988.1 hpa

75 %

19.3 km/h aus 117

29.0 km/h aus SE

3.6 C

4.1 C

4.3 C

7.6 C

0 W/m

0.00 mm

04:40

7.9 C

988.1 hpa

75 %

20.9 km/h aus 116

32.2 km/h aus SSE

3.7 C

3.9 C

4.2 C

7.7 C

0 W/m

0.00 mm

04:45

7.9 C

987.8 hpa

75 %

19.3 km/h aus 117

29.0 km/h aus SSE

3.8 C

4.3 C

4.5 C

7.7 C

0 W/m

0.00 mm

04:50

7.9 C

987.8 hpa

75 %

20.9 km/h aus 117

32.2 km/h aus SSE

3.8 C

4.1 C

4.3 C

7.7 C

0 W/m

0.00 mm

04:55

8.0 C

987.8 hpa

75 %

20.9 km/h aus 117

33.8 km/h aus SSE

3.8 C

4.1 C

4.3 C

7.8 C

0 W/m

0.00 mm

05:00

8.0 C

987.6 hpa

75 %

20.9 km/h aus 118

29.0 km/h aus SSE

3.8 C

4.1 C

4.3 C

7.8 C

0 W/m

0.00 mm

05:05

8.1 C

987.6 hpa

75 %

20.9 km/h aus 117

30.6 km/h aus E

3.9 C

4.2 C

4.4 C

7.8 C

0 W/m

0.00 mm

05:10

8.2 C

987.6 hpa

75 %

24.1 km/h aus 117

33.8 km/h aus SSE

4.0 C

3.9 C

4.1 C

8.0 C

0 W/m

0.00 mm

05:15

8.2 C

987.7 hpa

74 %

20.9 km/h aus 116

33.8 km/h aus S

3.9 C

4.4 C

4.6 C

8.0 C

0 W/m

0.00 mm

05:20

8.3 C

987.7 hpa

74 %

25.7 km/h aus 117

38.6 km/h aus SSE

3.9 C

3.9 C

4.1 C

8.1 C

0 W/m

0.00 mm

05:25

8.3 C

987.7 hpa

75 %

24.1 km/h aus 117

33.8 km/h aus SSE

4.1 C

4.1 C

4.3 C

8.1 C

0 W/m

0.25 mm

05:30

8.3 C

987.6 hpa

75 %

29.0 km/h aus 116

38.6 km/h aus SSE

4.2 C

3.7 C

3.8 C

8.2 C

0 W/m

0.00 mm

05:35

8.4 C

987.6 hpa

75 %

29.0 km/h aus 117

46.7 km/h aus S

4.2 C

3.7 C

3.9 C

8.2 C

0 W/m

0.00 mm

05:40

8.3 C

987.6 hpa

76 %

27.4 km/h aus 117

38.6 km/h aus SSE

4.3 C

3.8 C

4.0 C

8.2 C

0 W/m

0.00 mm

05:45

8.3 C

987.7 hpa

76 %

27.4 km/h aus 117

37.0 km/h aus S

4.3 C

3.8 C

4.0 C

8.2 C

0 W/m

0.00 mm

05:50

8.3 C

987.7 hpa

76 %

25.7 km/h aus 117

37.0 km/h aus S

4.3 C

4.0 C

4.2 C

8.2 C

0 W/m

0.00 mm

05:55

8.3 C

987.7 hpa

76 %

27.4 km/h aus 117

35.4 km/h aus S

4.3 C

3.8 C

4.0 C

8.2 C

0 W/m

0.00 mm

06:00

8.3 C

987.9 hpa

77 %

25.7 km/h aus 118

37.0 km/h aus SE

4.5 C

3.9 C

4.1 C

8.1 C

0 W/m

0.25 mm

06:05

8.2 C

987.9 hpa

77 %

25.7 km/h aus 117

35.4 km/h aus SSE

4.4 C

3.9 C

4.1 C

8.1 C

0 W/m

0.00 mm

06:10

8.1 C

987.9 hpa

77 %

25.7 km/h aus 116

40.2 km/h aus SE

4.3 C

3.7 C

3.9 C

7.9 C

0 W/m

0.25 mm

06:15

8.1 C

987.7 hpa

77 %

29.0 km/h aus 116

45.1 km/h aus SSE

4.3 C

3.3 C

3.5 C

7.9 C

0 W/m

0.51 mm

06:20

8.0 C

987.7 hpa

77 %

22.5 km/h aus 116

32.2 km/h aus SSE

4.2 C

3.9 C

4.1 C

7.8 C

0 W/m

0.25 mm

06:25

7.9 C

987.7 hpa

77 %

20.9 km/h aus 117

30.6 km/h aus SSE

4.1 C

4.0 C

4.2 C

7.7 C

0 W/m

0.00 mm

06:30

7.8 C

987.4 hpa

77 %

20.9 km/h aus 117

27.4 km/h aus SE

4.0 C

3.9 C

4.1 C

7.7 C

0 W/m

0.25 mm

06:35

7.8 C

987.4 hpa

77 %

19.3 km/h aus 117

29.0 km/h aus SSE

4.0 C

4.1 C

4.3 C

7.6 C

0 W/m

0.00 mm

06:40

7.7 C

987.4 hpa

77 %

17.7 km/h aus 116

25.7 km/h aus SE

3.9 C

4.3 C

4.5 C

7.6 C

0 W/m

0.00 mm

06:45

7.7 C

987.3 hpa

77 %

19.3 km/h aus 116

30.6 km/h aus SSE

3.9 C

4.0 C

4.2 C

7.5 C

0 W/m

0.00 mm

06:50

7.7 C

987.3 hpa

76 %

20.9 km/h aus 116

29.0 km/h aus SSE

3.7 C

3.7 C

3.9 C

7.4 C

0 W/m

0.00 mm

06:55

7.7 C

987.3 hpa

76 %

22.5 km/h aus 116

32.2 km/h aus SSE

3.7 C

3.6 C

3.8 C

7.4 C

0 W/m

0.00 mm

07:00

7.7 C

987.4 hpa

76 %

24.1 km/h aus 117

32.2 km/h aus SSE

3.7 C

3.3 C

3.6 C

7.4 C

0 W/m

0.00 mm

07:05

7.7 C

987.4 hpa

76 %

20.9 km/h aus 117

30.6 km/h aus SSE

3.7 C

3.7 C

3.9 C

7.4 C

0 W/m

0.00 mm

07:10

7.7 C

987.4 hpa

76 %

20.9 km/h aus 117

27.4 km/h aus SSE

3.7 C

3.7 C

3.9 C

7.4 C

0 W/m

0.00 mm

07:15

7.7 C

987.4 hpa

76 %

19.3 km/h aus 116

29.0 km/h aus SSE

3.7 C

3.9 C

4.2 C

7.4 C

0 W/m

0.00 mm

07:20

7.7 C

987.4 hpa

76 %

20.9 km/h aus 117

32.2 km/h aus S

3.7 C

3.7 C

3.9 C

7.4 C

0 W/m

0.00 mm

07:25

7.7 C

987.4 hpa

76 %

24.1 km/h aus 116

37.0 km/h aus SSE

3.7 C

3.3 C

3.6 C

7.4 C

0 W/m

0.00 mm

07:30

7.7 C

987.3 hpa

76 %

25.7 km/h aus 116

35.4 km/h aus SSE

3.8 C

3.2 C

3.4 C

7.5 C

0 W/m

0.00 mm

07:35

7.8 C

987.3 hpa

76 %

25.7 km/h aus 117

38.6 km/h aus SSE

3.8 C

3.3 C

3.5 C

7.6 C

0 W/m

0.00 mm

07:40

7.8 C

987.3 hpa

76 %

22.5 km/h aus 117

32.2 km/h aus SSE

3.8 C

3.7 C

3.9 C

7.6 C

0 W/m

0.00 mm

07:45

7.8 C

987.1 hpa

76 %

25.7 km/h aus 116

38.6 km/h aus SSE

3.9 C

3.3 C

3.6 C

7.6 C

0 W/m

0.00 mm

07:50

7.9 C

987.1 hpa

77 %

24.1 km/h aus 116

35.4 km/h aus SSE

4.1 C

3.6 C

3.8 C

7.7 C

0 W/m

0.00 mm

07:55

7.9 C

987.1 hpa

77 %

20.9 km/h aus 117

27.4 km/h aus SSE

4.2 C

4.1 C

4.3 C

7.8 C

0 W/m

0.00 mm

08:00

7.9 C

986.8 hpa

77 %

24.1 km/h aus 116

35.4 km/h aus SE

4.2 C

3.7 C

3.9 C

7.8 C

3 W/m

0.00 mm

08:05

8.1 C

986.8 hpa

77 %

25.7 km/h aus 115

33.8 km/h aus SSE

4.3 C

3.7 C

3.8 C

7.9 C

6 W/m

0.00 mm

08:10

8.1 C

986.8 hpa

77 %

22.5 km/h aus 116

32.2 km/h aus SE

4.3 C

4.1 C

4.3 C

7.9 C

11 W/m

0.00 mm

08:15

8.2 C

986.4 hpa

77 %

22.5 km/h aus 116

32.2 km/h aus SSE

4.4 C

4.2 C

4.3 C

8.0 C

19 W/m

0.00 mm

08:20

8.2 C

986.4 hpa

77 %

22.5 km/h aus 117

33.8 km/h aus SSE

4.4 C

4.2 C

4.3 C

8.0 C

26 W/m

0.00 mm

08:25

8.2 C

986.4 hpa

77 %

20.9 km/h aus 116

29.0 km/h aus SE

4.4 C

4.4 C

4.6 C

8.1 C

26 W/m

0.00 mm

08:30

8.3 C

986.3 hpa

77 %

19.3 km/h aus 117

29.0 km/h aus SSE

4.5 C

4.7 C

4.9 C

8.1 C

27 W/m

0.00 mm

08:35

8.3 C

986.3 hpa

77 %

24.1 km/h aus 117

33.8 km/h aus SE

4.5 C

4.2 C

4.3 C

8.2 C

31 W/m

0.00 mm

08:40

8.4 C

986.3 hpa

77 %

24.1 km/h aus 117

37.0 km/h aus SSE

4.6 C

4.3 C

4.4 C

8.3 C

35 W/m

0.00 mm

08:45

8.6 C

986.3 hpa

77 %

25.7 km/h aus 117

33.8 km/h aus SSE

4.8 C

4.3 C

4.4 C

8.4 C

39 W/m

0.00 mm

08:50

8.7 C

986.3 hpa

77 %

30.6 km/h aus 116

46.7 km/h aus SSE

4.9 C

4.1 C

4.2 C

8.6 C

37 W/m

0.00 mm

08:55

8.9 C

986.3 hpa

77 %

33.8 km/h aus 117

49.9 km/h aus S

5.1 C

4.0 C

4.1 C

8.8 C

35 W/m

0.00 mm

09:00

9.2 C

986.3 hpa

76 %

29.0 km/h aus 117

41.8 km/h aus SSE

5.2 C

4.7 C

4.8 C

9.0 C

36 W/m

0.00 mm

09:05

9.3 C

986.3 hpa

76 %

29.0 km/h aus 116

46.7 km/h aus SE

5.3 C

4.8 C

4.9 C

9.1 C

42 W/m

0.00 mm

09:10

9.4 C

986.3 hpa

76 %

35.4 km/h aus 118

53.1 km/h aus SSE

5.4 C

4.4 C

4.6 C

9.2 C

52 W/m

0.00 mm

09:15

9.6 C

986.0 hpa

75 %

33.8 km/h aus 117

53.1 km/h aus SSE

5.3 C

4.7 C

4.8 C

9.4 C

64 W/m

0.00 mm

09:20

9.6 C

986.0 hpa

75 %

37.0 km/h aus 116

49.9 km/h aus S

5.4 C

4.5 C

4.7 C

9.4 C

69 W/m

0.00 mm

09:25

9.8 C

986.0 hpa

75 %

37.0 km/h aus 117

56.3 km/h aus SSE

5.6 C

4.8 C

4.9 C

9.7 C

77 W/m

0.00 mm

09:30

9.9 C

985.8 hpa

74 %

38.6 km/h aus 117

56.3 km/h aus S

5.5 C

4.7 C

4.9 C

9.7 C

80 W/m

0.00 mm

09:35

9.9 C

985.8 hpa

74 %

37.0 km/h aus 117

49.9 km/h aus S

5.5 C

4.9 C

5.1 C

9.8 C

84 W/m

0.00 mm

09:40

10.1 C

985.8 hpa

74 %

32.2 km/h aus 117

48.3 km/h aus S

5.6 C

5.3 C

5.5 C

9.9 C

90 W/m

0.00 mm

09:45

10.1 C

985.3 hpa

74 %

33.8 km/h aus 116

45.1 km/h aus S

5.7 C

5.3 C

5.4 C

9.9 C

82 W/m

0.00 mm

09:50

10.2 C

985.3 hpa

74 %

32.2 km/h aus 116

45.1 km/h aus SSE

5.7 C

5.5 C

5.7 C

10.0 C

76 W/m

0.00 mm

09:55

10.3 C

985.3 hpa

73 %

37.0 km/h aus 116

48.3 km/h aus SSE

5.6 C

5.3 C

5.4 C

10.1 C

79 W/m

0.00 mm

10:00

10.3 C

985.2 hpa

73 %

33.8 km/h aus 116

51.5 km/h aus SSE

5.7 C

5.6 C

5.7 C

10.2 C

95 W/m

0.00 mm

10:05

10.4 C

985.2 hpa

73 %

37.0 km/h aus 117

49.9 km/h aus S

5.8 C

5.4 C

5.6 C

10.2 C

97 W/m

0.00 mm

10:10

10.5 C

985.2 hpa

73 %

32.2 km/h aus 117

46.7 km/h aus SSE

5.9 C

5.8 C

6.1 C

10.3 C

118 W/m

0.00 mm

10:15

10.6 C

985.2 hpa

72 %

35.4 km/h aus 118

48.3 km/h aus SSE

5.7 C

5.6 C

5.8 C

10.3 C

147 W/m

0.00 mm

10:20

10.6 C

985.2 hpa

72 %

33.8 km/h aus 116

46.7 km/h aus SSE

5.8 C

5.8 C

6.0 C

10.4 C

110 W/m

0.00 mm

10:25

10.6 C

985.2 hpa

72 %

33.8 km/h aus 116

46.7 km/h aus SSE

5.7 C

5.7 C

5.9 C

10.3 C

100 W/m

0.00 mm

10:30

10.6 C

985.2 hpa

72 %

32.2 km/h aus 116

48.3 km/h aus SSE

5.8 C

5.9 C

6.2 C

10.4 C

113 W/m

0.00 mm

10:35

10.8 C

985.2 hpa

72 %

32.2 km/h aus 117

48.3 km/h aus SSE

5.9 C

6.1 C

6.3 C

10.5 C

146 W/m

0.00 mm

10:40

10.9 C

985.2 hpa

72 %

27.4 km/h aus 117

45.1 km/h aus SSE

6.1 C

6.7 C

6.9 C

10.7 C

183 W/m

0.00 mm

10:45

11.1 C

984.9 hpa

71 %

32.2 km/h aus 117

49.9 km/h aus SSE

6.0 C

6.4 C

6.7 C

10.8 C

129 W/m

0.00 mm

10:50

10.9 C

984.9 hpa

71 %

32.2 km/h aus 114

49.9 km/h aus SSE

5.9 C

6.3 C

6.6 C

10.7 C

100 W/m

0.00 mm

10:55

10.9 C

984.9 hpa

72 %

27.4 km/h aus 117

41.8 km/h aus SE

6.1 C

6.7 C

6.9 C

10.7 C

174 W/m

0.00 mm

11:00

11.0 C

984.8 hpa

72 %

27.4 km/h aus 116

43.5 km/h aus SE

6.1 C

6.8 C

7.1 C

10.7 C

131 W/m

0.00 mm

11:05

11.3 C

984.8 hpa

72 %

29.0 km/h aus 116

43.5 km/h aus SSE

6.4 C

6.8 C

7.2 C

10.9 C

216 W/m

0.00 mm

11:10

11.4 C

984.8 hpa

71 %

37.0 km/h aus 117

61.2 km/h aus SE

6.3 C

6.4 C

6.7 C

11.1 C

204 W/m

0.00 mm

11:15

11.3 C

984.8 hpa

71 %

32.2 km/h aus 117

56.3 km/h aus SSE

6.3 C

6.6 C

6.9 C

11.0 C

140 W/m

0.00 mm

11:20

11.3 C

984.8 hpa

71 %

35.4 km/h aus 118

56.3 km/h aus SSE

6.2 C

6.3 C

6.7 C

10.9 C

92 W/m

0.00 mm

11:25

11.2 C

984.8 hpa

71 %

35.4 km/h aus 117

56.3 km/h aus SSE

6.2 C

6.3 C

6.6 C

10.9 C

72 W/m

0.00 mm

11:30

11.2 C

984.8 hpa

71 %

35.4 km/h aus 117

49.9 km/h aus SSE

6.2 C

6.3 C

6.6 C

10.9 C

99 W/m

0.00 mm

11:35

11.3 C

984.8 hpa

71 %

32.2 km/h aus 117

46.7 km/h aus SE

6.2 C

6.6 C

6.9 C

10.9 C

128 W/m

0.00 mm

11:40

11.4 C

984.8 hpa

71 %

37.0 km/h aus 117

56.3 km/h aus SSE

6.3 C

6.4 C

6.7 C

11.1 C

108 W/m

0.00 mm

11:45

11.6 C

984.7 hpa

71 %

35.4 km/h aus 117

49.9 km/h aus SSE

6.5 C

6.7 C

7.0 C

11.2 C

148 W/m

0.00 mm

11:50

11.7 C

984.7 hpa

71 %

35.4 km/h aus 116

49.9 km/h aus SSE

6.6 C

6.8 C

7.2 C

11.3 C

172 W/m

0.00 mm

11:55

11.8 C

984.7 hpa

70 %

37.0 km/h aus 117

54.7 km/h aus SSE

6.5 C

6.8 C

7.2 C

11.4 C

165 W/m

0.00 mm

12:00

11.9 C

984.5 hpa

70 %

32.2 km/h aus 117

51.5 km/h aus S

6.6 C

7.2 C

7.6 C

11.5 C

133 W/m

0.00 mm

12:05

11.9 C

984.5 hpa

70 %

33.8 km/h aus 117

41.8 km/h aus SE

6.6 C

7.1 C

7.5 C

11.5 C

112 W/m

0.00 mm

12:10

12.1 C

984.5 hpa

71 %

30.6 km/h aus 117

46.7 km/h aus SE

7.0 C

7.6 C

7.9 C

11.7 C

178 W/m

0.00 mm

12:15

12.2 C

984.2 hpa

70 %

29.0 km/h aus 116

46.7 km/h aus S

6.9 C

7.8 C

8.2 C

11.8 C

98 W/m

0.00 mm

12:20

12.2 C

984.2 hpa

70 %

33.8 km/h aus 118

51.5 km/h aus S

6.9 C

7.4 C

7.8 C

11.8 C

65 W/m

0.00 mm

12:25

12.2 C

984.2 hpa

70 %

37.0 km/h aus 117

51.5 km/h aus SSE

6.9 C

7.2 C

7.6 C

11.8 C

50 W/m

0.00 mm

12:30

12.3 C

984.2 hpa

70 %

33.8 km/h aus 117

48.3 km/h aus S

7.0 C

7.6 C

7.9 C

11.9 C

55 W/m

0.00 mm

12:35

12.3 C

984.2 hpa

69 %

33.8 km/h aus 117

57.9 km/h aus SSE

6.8 C

7.6 C

8.0 C

11.9 C

46 W/m

0.00 mm

12:40

12.4 C

984.2 hpa

68 %

32.2 km/h aus 116

53.1 km/h aus SSE

6.6 C

7.7 C

8.2 C

11.9 C

37 W/m

0.00 mm

12:45

12.5 C

984.4 hpa

68 %

45.1 km/h aus 116

64.4 km/h aus SSE

6.8 C

7.1 C

7.5 C

12.1 C

34 W/m

0.00 mm

12:50

12.7 C

984.4 hpa

67 %

49.9 km/h aus 116

64.4 km/h aus S

6.7 C

6.9 C

7.4 C

12.2 C

45 W/m

0.00 mm

12:55

12.7 C

984.4 hpa

66 %

38.6 km/h aus 116

54.7 km/h aus S

6.5 C

7.6 C

8.1 C

12.2 C

41 W/m

0.00 mm

13:00

12.8 C

984.6 hpa

66 %

35.4 km/h aus 116

54.7 km/h aus SSE

6.6 C

7.9 C

8.4 C

12.3 C

36 W/m

0.00 mm

13:05

12.9 C

984.6 hpa

65 %

38.6 km/h aus 117

57.9 km/h aus S

6.5 C

7.8 C

8.4 C

12.4 C

35 W/m

0.00 mm

13:10

13.0 C

984.6 hpa

65 %

27.4 km/h aus 117

41.8 km/h aus SSE

6.6 C

8.7 C

9.3 C

12.4 C

23 W/m

0.00 mm

13:15

13.0 C

984.7 hpa

64 %

40.2 km/h aus 116

62.8 km/h aus S

6.3 C

7.7 C

8.3 C

12.4 C

54 W/m

0.00 mm

13:20

13.1 C

984.7 hpa

64 %

35.4 km/h aus 117

53.1 km/h aus S

6.4 C

8.1 C

8.7 C

12.4 C

36 W/m

0.00 mm

13:25

13.1 C

984.7 hpa

63 %

41.8 km/h aus 116

67.6 km/h aus SSE

6.2 C

7.8 C

8.4 C

12.5 C

30 W/m

0.00 mm

13:30

13.2 C

984.7 hpa

62 %

35.4 km/h aus 116

56.3 km/h aus SSW

6.0 C

8.2 C

8.8 C

12.5 C

30 W/m

0.00 mm

13:35

13.1 C

984.7 hpa

62 %

38.6 km/h aus 117

78.9 km/h aus S

6.0 C

7.9 C

8.6 C

12.4 C

32 W/m

0.00 mm

13:40

13.0 C

984.7 hpa

63 %

46.7 km/h aus 117

74.0 km/h aus S

6.1 C

7.4 C

8.0 C

12.4 C

42 W/m

0.00 mm

13:45

12.8 C

984.9 hpa

63 %

40.2 km/h aus 117

64.4 km/h aus S

6.0 C

7.5 C

8.1 C

12.2 C

71 W/m

0.00 mm

13:50

12.8 C

984.9 hpa

62 %

40.2 km/h aus 117

75.6 km/h aus SW

5.7 C

7.4 C

8.1 C

12.2 C

73 W/m

0.00 mm

13:55

12.8 C

984.9 hpa

61 %

46.7 km/h aus 116

69.2 km/h aus SSW

5.4 C

7.1 C

7.7 C

12.1 C

94 W/m

0.00 mm

14:00

12.7 C

984.9 hpa

61 %

38.6 km/h aus 117

64.4 km/h aus SW

5.4 C

7.4 C

8.1 C

12.1 C

96 W/m

0.00 mm

14:05

12.6 C

984.9 hpa

62 %

32.2 km/h aus 116

54.7 km/h aus S

5.5 C

7.8 C

8.4 C

11.9 C

89 W/m

0.00 mm

14:10

12.5 C

984.9 hpa

62 %

40.2 km/h aus 117

74.0 km/h aus S

5.4 C

7.2 C

7.8 C

11.9 C

89 W/m

0.00 mm

14:15

12.3 C

985.4 hpa

63 %

37.0 km/h aus 116

64.4 km/h aus SSW

5.5 C

7.2 C

7.8 C

11.7 C

53 W/m

0.00 mm

14:20

12.3 C

985.4 hpa

62 %

37.0 km/h aus 116

59.5 km/h aus SW

5.2 C

7.1 C

7.7 C

11.7 C

76 W/m

0.00 mm

14:25

12.2 C

985.4 hpa

61 %

35.4 km/h aus 118

64.4 km/h aus SSW

4.9 C

7.1 C

7.8 C

11.6 C

87 W/m

0.00 mm

14:30

12.1 C

985.5 hpa

61 %

38.6 km/h aus 117

70.8 km/h aus S

4.8 C

6.8 C

7.4 C

11.5 C

98 W/m

0.00 mm

14:35

12.0 C

985.5 hpa

62 %

37.0 km/h aus 116

64.4 km/h aus WSW

4.9 C

6.8 C

7.4 C

11.4 C

82 W/m

0.00 mm

14:40

11.9 C

985.5 hpa

63 %

32.2 km/h aus 117

51.5 km/h aus SSW

5.1 C

7.1 C

7.6 C

11.3 C

56 W/m

0.00 mm

14:45

11.8 C

986.3 hpa

63 %

35.4 km/h aus 116

57.9 km/h aus SSE

5.0 C

6.7 C

7.2 C

11.2 C

50 W/m

0.00 mm

14:50

11.6 C

986.3 hpa

64 %

45.1 km/h aus 116

72.4 km/h aus SSW

5.0 C

5.9 C

6.4 C

11.1 C

36 W/m

0.00 mm

14:55

11.4 C

986.3 hpa

64 %

35.4 km/h aus 117

51.5 km/h aus SW

4.9 C

6.4 C

6.9 C

10.9 C

33 W/m

0.00 mm

15:00

11.3 C

986.8 hpa

65 %

35.4 km/h aus 117

64.4 km/h aus SSW

5.0 C

6.3 C

6.7 C

10.9 C

30 W/m

0.00 mm

15:05

11.3 C

986.8 hpa

65 %

30.6 km/h aus 115

48.3 km/h aus SW

4.9 C

6.6 C

7.1 C

10.8 C

40 W/m

0.00 mm

15:10

11.1 C

986.8 hpa

66 %

33.8 km/h aus 117

59.5 km/h aus SW

5.0 C

6.2 C

6.6 C

10.7 C

47 W/m

0.00 mm

15:15

10.9 C

987.3 hpa

66 %

37.0 km/h aus 115

62.8 km/h aus SW

4.8 C

5.8 C

6.2 C

10.6 C

67 W/m

0.00 mm

15:20

10.8 C

987.3 hpa

66 %

38.6 km/h aus 116

62.8 km/h aus SSW

4.7 C

5.5 C

5.9 C

10.4 C

84 W/m

0.00 mm

15:25

10.5 C

987.3 hpa

67 %

38.6 km/h aus 116

64.4 km/h aus SSW

4.6 C

5.2 C

5.6 C

10.2 C

51 W/m

0.00 mm

15:30

10.2 C

987.9 hpa

69 %

37.0 km/h aus 117

66.0 km/h aus SW

4.8 C

5.1 C

5.3 C

9.9 C

33 W/m

0.00 mm

15:35

9.9 C

987.9 hpa

71 %

40.2 km/h aus 117

74.0 km/h aus S

4.9 C

4.6 C

4.8 C

9.7 C

62 W/m

0.00 mm

15:40

9.6 C

987.9 hpa

72 %

49.9 km/h aus 117

72.4 km/h aus SW

4.8 C

3.8 C

3.9 C

9.4 C

49 W/m

0.00 mm

15:40

9.6 C

987.9 hpa

72 %

49.9 km/h aus 117

72.4 km/h aus SW

4.8 C

3.8 C

3.9 C

9.4 C

49 W/m

0.00 mm

15:45

9.4 C

987.9 hpa

73 %

43.5 km/h aus 117

74.0 km/h aus S

4.8 C

3.8 C

4.0 C

9.2 C

46 W/m

0.00 mm

15:45

9.4 C

987.9 hpa

73 %

43.5 km/h aus 117

74.0 km/h aus S

4.8 C

3.8 C

4.0 C

9.2 C

46 W/m

0.00 mm

15:50

9.2 C

987.9 hpa

73 %

48.3 km/h aus 117

83.7 km/h aus S

4.6 C

3.3 C

3.6 C

9.0 C

39 W/m

0.00 mm

15:50

9.2 C

987.9 hpa

73 %

48.3 km/h aus 117

83.7 km/h aus S

4.6 C

3.3 C

3.6 C

9.0 C

39 W/m

0.00 mm

15:55

9.2 C

987.9 hpa

74 %

45.1 km/h aus 116

69.2 km/h aus S

4.8 C

3.5 C

3.7 C

9.0 C

48 W/m

0.00 mm

15:55

9.2 C

987.9 hpa

74 %

45.1 km/h aus 116

69.2 km/h aus S

4.8 C

3.5 C

3.7 C

9.0 C

48 W/m

0.00 mm

16:00

9.0 C

988.5 hpa

74 %

43.5 km/h aus 117

72.4 km/h aus S

4.6 C

3.4 C

3.6 C

8.8 C

23 W/m

0.00 mm

16:00

9.0 C

988.5 hpa

74 %

43.5 km/h aus 117

72.4 km/h aus S

4.6 C

3.4 C

3.6 C

8.8 C

23 W/m

0.00 mm

16:05

8.9 C

988.5 hpa

74 %

38.6 km/h aus 117

57.9 km/h aus SSW

4.6 C

3.6 C

3.8 C

8.8 C

29 W/m

0.00 mm

16:05

8.9 C

988.5 hpa

74 %

38.6 km/h aus 117

57.9 km/h aus SSW

4.6 C

3.6 C

3.8 C

8.8 C

29 W/m

0.00 mm

16:10

8.9 C

988.5 hpa

74 %

35.4 km/h aus 116

59.5 km/h aus SSW

4.6 C

3.8 C

4.0 C

8.8 C

18 W/m

0.00 mm

16:10

8.9 C

988.5 hpa

74 %

35.4 km/h aus 116

59.5 km/h aus SSW

4.6 C

3.8 C

4.0 C

8.8 C

18 W/m

0.00 mm

16:15

9.0 C

989.1 hpa

74 %

43.5 km/h aus 117

66.0 km/h aus SSW

4.6 C

3.4 C

3.6 C

8.8 C

14 W/m

0.00 mm

16:15

9.0 C

989.1 hpa

74 %

43.5 km/h aus 117

66.0 km/h aus SSW

4.6 C

3.4 C

3.6 C

8.8 C

14 W/m

0.00 mm

16:20

9.0 C

989.1 hpa

74 %

45.1 km/h aus 117

69.2 km/h aus SW

4.6 C

3.3 C

3.4 C

8.8 C

13 W/m

0.00 mm

16:20

9.0 C

989.1 hpa

74 %

45.1 km/h aus 117

69.2 km/h aus SW

4.6 C

3.3 C

3.4 C

8.8 C

13 W/m

0.00 mm

16:25

8.9 C

989.1 hpa

74 %

45.1 km/h aus 117

77.2 km/h aus SSW

4.6 C

3.2 C

3.4 C

8.8 C

14 W/m

0.00 mm

16:25

8.9 C

989.1 hpa

74 %

45.1 km/h aus 117

77.2 km/h aus SSW

4.6 C

3.2 C

3.4 C

8.8 C

14 W/m

0.00 mm

16:30

8.9 C

989.4 hpa

74 %

45.1 km/h aus 116

74.0 km/h aus S

4.6 C

3.2 C

3.4 C

8.8 C

16 W/m

0.00 mm

16:30

8.9 C

989.4 hpa

74 %

45.1 km/h aus 116

74.0 km/h aus S

4.6 C

3.2 C

3.4 C

8.8 C

16 W/m

0.00 mm

16:35

8.9 C

989.4 hpa

74 %

35.4 km/h aus 117

61.2 km/h aus SW

4.5 C

3.8 C

3.9 C

8.7 C

16 W/m

0.00 mm

16:35

8.9 C

989.4 hpa

74 %

35.4 km/h aus 117

61.2 km/h aus SW

4.5 C

3.8 C

3.9 C

8.7 C

16 W/m

0.00 mm

16:40

8.8 C

989.4 hpa

74 %

37.0 km/h aus 117

64.4 km/h aus SW

4.4 C

3.6 C

3.8 C

8.7 C

12 W/m

0.00 mm

16:40

8.8 C

989.4 hpa

74 %

37.0 km/h aus 117

64.4 km/h aus SW

4.4 C

3.6 C

3.8 C

8.7 C

12 W/m

0.00 mm

16:45

8.8 C

989.5 hpa

74 %

41.8 km/h aus 117

62.8 km/h aus S

4.4 C

3.3 C

3.4 C

8.6 C

11 W/m

0.00 mm

16:45

8.8 C

989.5 hpa

74 %

41.8 km/h aus 117

62.8 km/h aus S

4.4 C

3.3 C

3.4 C

8.6 C

11 W/m

0.00 mm

16:50

8.8 C

989.5 hpa

74 %

37.0 km/h aus 117

64.4 km/h aus SW

4.4 C

3.6 C

3.7 C

8.6 C

8 W/m

0.00 mm

16:50

8.8 C

989.5 hpa

74 %

37.0 km/h aus 117

64.4 km/h aus SW

4.4 C

3.6 C

3.7 C

8.6 C

8 W/m

0.00 mm

16:55

8.7 C

989.5 hpa

74 %

35.4 km/h aus 115

54.7 km/h aus SW

4.3 C

3.6 C

3.7 C

8.5 C

6 W/m

0.00 mm

16:55

8.7 C

989.5 hpa

74 %

35.4 km/h aus 115

54.7 km/h aus SW

4.3 C

3.6 C

3.7 C

8.5 C

6 W/m

0.00 mm

17:00

8.6 C

990.5 hpa

75 %

35.4 km/h aus 117

57.9 km/h aus SW

4.4 C

3.5 C

3.7 C

8.4 C

2 W/m

0.00 mm

17:00

8.6 C

990.5 hpa

75 %

35.4 km/h aus 117

57.9 km/h aus SW

4.4 C

3.5 C

3.7 C

8.4 C

2 W/m

0.00 mm

17:05

8.6 C

990.5 hpa

75 %

30.6 km/h aus 116

56.3 km/h aus SSW

4.4 C

3.8 C

3.9 C

8.4 C

0 W/m

0.00 mm

17:10

8.6 C

990.5 hpa

75 %

25.7 km/h aus 117

46.7 km/h aus SW

4.4 C

4.2 C

4.4 C

8.4 C

0 W/m

0.00 mm

17:15

8.4 C

991.0 hpa

75 %

30.6 km/h aus 116

59.5 km/h aus SSW

4.3 C

3.7 C

3.8 C

8.3 C

0 W/m

0.00 mm

17:20

8.4 C

991.0 hpa

75 %

30.6 km/h aus 117

53.1 km/h aus SSW

4.2 C

3.6 C

3.8 C

8.2 C

0 W/m

0.00 mm

17:25

8.3 C

991.0 hpa

76 %

24.1 km/h aus 117

41.8 km/h aus SSW

4.3 C

4.1 C

4.3 C

8.1 C

0 W/m

0.00 mm

17:30

8.2 C

991.6 hpa

76 %

30.6 km/h aus 117

48.3 km/h aus SW

4.2 C

3.3 C

3.5 C

8.0 C

0 W/m

0.00 mm

17:35

8.0 C

991.6 hpa

77 %

27.4 km/h aus 118

46.7 km/h aus SW

4.2 C

3.4 C

3.6 C

7.8 C

0 W/m

0.00 mm

17:40

7.8 C

991.6 hpa

77 %

24.1 km/h aus 117

41.8 km/h aus SSW

4.0 C

3.6 C

3.7 C

7.7 C

0 W/m

0.25 mm

17:45

7.7 C

992.4 hpa

77 %

30.6 km/h aus 117

51.5 km/h aus SW

3.9 C

2.8 C

2.9 C

7.5 C

0 W/m

0.00 mm

17:50

7.4 C

992.4 hpa

77 %

33.8 km/h aus 117

64.4 km/h aus SW

3.7 C

2.3 C

2.4 C

7.3 C

0 W/m

0.00 mm

17:55

7.2 C

992.4 hpa

77 %

30.6 km/h aus 116

48.3 km/h aus S

3.5 C

2.3 C

2.4 C

7.1 C

0 W/m

0.00 mm

18:00

7.0 C

992.9 hpa

77 %

35.4 km/h aus 115

64.4 km/h aus SW

3.2 C

1.7 C

1.8 C

6.8 C

0 W/m

0.00 mm

18:05

6.9 C

992.9 hpa

77 %

27.4 km/h aus 117

43.5 km/h aus WSW

3.1 C

2.2 C

2.3 C

6.7 C

0 W/m

0.00 mm

18:10

6.8 C

992.9 hpa

77 %

27.4 km/h aus 115

45.1 km/h aus SSW

3.0 C

2.1 C

2.2 C

6.6 C

0 W/m

0.25 mm

18:15

6.7 C

993.4 hpa

77 %

27.4 km/h aus 116

51.5 km/h aus SSW

2.9 C

1.9 C

2.1 C

6.5 C

0 W/m

0.00 mm

18:20

6.6 C

993.4 hpa

78 %

30.6 km/h aus 116

53.1 km/h aus SSW

3.0 C

1.6 C

1.7 C

6.4 C

0 W/m

0.00 mm

18:25

6.4 C

993.4 hpa

78 %

29.0 km/h aus 117

53.1 km/h aus SW

2.9 C

1.6 C

1.7 C

6.3 C

0 W/m

0.00 mm

18:30

6.4 C

993.7 hpa

77 %

32.2 km/h aus 116

53.1 km/h aus SSW

2.6 C

1.2 C

1.4 C

6.2 C

0 W/m

0.00 mm

18:35

6.3 C

993.7 hpa

77 %

30.6 km/h aus 117

49.9 km/h aus SW

2.5 C

1.2 C

1.4 C

6.1 C

0 W/m

0.00 mm

18:40

6.2 C

993.7 hpa

77 %

25.7 km/h aus 118

48.3 km/h aus SW

2.5 C

1.5 C

1.7 C

6.0 C

0 W/m

0.00 mm

18:45

6.2 C

994.1 hpa

77 %

27.4 km/h aus 117

49.9 km/h aus SSW

2.4 C

1.3 C

1.6 C

5.9 C

0 W/m

0.00 mm

18:50

6.1 C

994.1 hpa

78 %

30.6 km/h aus 117

45.1 km/h aus SW

2.6 C

1.0 C

1.2 C

5.9 C

0 W/m

0.00 mm

18:55

6.1 C

994.1 hpa

78 %

30.6 km/h aus 116

49.9 km/h aus SW

2.5 C

0.9 C

1.1 C

5.9 C

0 W/m

0.00 mm

19:00

6.1 C

994.6 hpa

77 %

30.6 km/h aus 117

48.3 km/h aus S

2.3 C

0.9 C

1.1 C

5.8 C

0 W/m

0.25 mm

19:05

6.1 C

994.6 hpa

77 %

24.1 km/h aus 116

48.3 km/h aus SW

2.3 C

1.5 C

1.7 C

5.8 C

0 W/m

0.00 mm

19:10

6.0 C

994.6 hpa

78 %

20.9 km/h aus 116

40.2 km/h aus SW

2.5 C

1.9 C

2.1 C

5.8 C

0 W/m

0.00 mm

19:15

6.0 C

995.2 hpa

78 %

20.9 km/h aus 117

37.0 km/h aus SSW

2.5 C

1.9 C

2.1 C

5.8 C

0 W/m

0.00 mm

19:20

6.0 C

995.2 hpa

78 %

25.7 km/h aus 117

46.7 km/h aus WSW

2.5 C

1.3 C

1.5 C

5.8 C

0 W/m

0.00 mm

19:25

6.0 C

995.2 hpa

77 %

20.9 km/h aus 116

38.6 km/h aus SW

2.3 C

1.8 C

2.1 C

5.8 C

0 W/m

0.00 mm

19:30

6.0 C

995.4 hpa

77 %

25.7 km/h aus 116

48.3 km/h aus SW

2.3 C

1.3 C

1.5 C

5.8 C

0 W/m

0.00 mm

19:35

6.0 C

995.4 hpa

77 %

27.4 km/h aus 116

40.2 km/h aus S

2.3 C

1.2 C

1.4 C

5.8 C

0 W/m

0.00 mm

19:40

6.0 C

995.4 hpa

77 %

25.7 km/h aus 117

38.6 km/h aus SW

2.3 C

1.3 C

1.5 C

5.8 C

0 W/m

0.00 mm

19:45

6.0 C

995.7 hpa

77 %

20.9 km/h aus 117

38.6 km/h aus SSW

2.3 C

1.8 C

2.1 C

5.8 C

0 W/m

0.00 mm

19:50

6.0 C

995.7 hpa

77 %

22.5 km/h aus 116

32.2 km/h aus SW

2.3 C

1.7 C

1.9 C

5.8 C

0 W/m

0.00 mm

19:55

6.0 C

995.7 hpa

77 %

19.3 km/h aus 117

32.2 km/h aus SSW

2.3 C

2.1 C

2.3 C

5.8 C

0 W/m

0.00 mm

20:00

6.0 C

996.2 hpa

77 %

19.3 km/h aus 117

33.8 km/h aus SW

2.3 C

2.1 C

2.3 C

5.8 C

0 W/m

0.00 mm

20:05

6.0 C

996.2 hpa

77 %

22.5 km/h aus 116

45.1 km/h aus S

2.3 C

1.7 C

1.9 C

5.8 C

0 W/m

0.00 mm

20:10

6.0 C

996.2 hpa

77 %

19.3 km/h aus 117

37.0 km/h aus SW

2.3 C

2.1 C

2.3 C

5.8 C

0 W/m

0.00 mm

20:15

6.0 C

996.5 hpa

77 %

17.7 km/h aus 117

32.2 km/h aus SSW

2.3 C

2.3 C

2.5 C

5.8 C

0 W/m

0.00 mm

20:20

6.0 C

996.5 hpa

77 %

17.7 km/h aus 116

25.7 km/h aus SW

2.3 C

2.3 C

2.5 C

5.8 C

0 W/m

0.00 mm

20:25

6.0 C

996.5 hpa

77 %

17.7 km/h aus 116

32.2 km/h aus WSW

2.3 C

2.3 C

2.5 C

5.8 C

0 W/m

0.00 mm

20:30

6.0 C

996.7 hpa

77 %

17.7 km/h aus 116

27.4 km/h aus SSW

2.3 C

2.3 C

2.5 C

5.8 C

0 W/m

0.00 mm

20:35

6.0 C

996.7 hpa

77 %

11.3 km/h aus 116

22.5 km/h aus WSW

2.3 C

3.4 C

3.6 C

5.8 C

0 W/m

0.00 mm

20:40

6.0 C

996.7 hpa

77 %

11.3 km/h aus 117

22.5 km/h aus SW

2.3 C

3.4 C

3.6 C

5.8 C

0 W/m

0.25 mm

20:45

6.0 C

996.8 hpa

77 %

12.9 km/h aus 118

24.1 km/h aus WSW

2.3 C

3.1 C

3.3 C

5.8 C

0 W/m

0.00 mm

20:50

6.0 C

996.8 hpa

77 %

11.3 km/h aus 116

25.7 km/h aus SSW

2.3 C

3.4 C

3.6 C

5.8 C

0 W/m

0.00 mm

20:55

6.0 C

996.8 hpa

77 %

14.5 km/h aus 117

25.7 km/h aus SSW

2.3 C

2.8 C

3.0 C

5.8 C

0 W/m

0.00 mm

21:00

6.0 C

996.9 hpa

77 %

12.9 km/h aus 116

24.1 km/h aus SSW

2.3 C

3.1 C

3.3 C

5.8 C

0 W/m

0.00 mm

21:05

6.1 C

996.9 hpa

77 %

12.9 km/h aus 117

24.1 km/h aus WSW

2.3 C

3.2 C

3.4 C

5.8 C

0 W/m

0.00 mm

21:10

6.1 C

996.9 hpa

76 %

16.1 km/h aus 116

27.4 km/h aus WSW

2.1 C

2.6 C

2.8 C

5.8 C

0 W/m

0.00 mm

21:15

6.1 C

997.1 hpa

76 %

16.1 km/h aus 116

29.0 km/h aus SW

2.2 C

2.6 C

2.8 C

5.9 C

0 W/m

0.00 mm

21:20

6.2 C

997.1 hpa

76 %

17.7 km/h aus 117

29.0 km/h aus SW

2.2 C

2.4 C

2.7 C

5.9 C

0 W/m

0.00 mm

21:25

6.2 C

997.1 hpa

76 %

16.1 km/h aus 117

27.4 km/h aus SW

2.2 C

2.7 C

2.9 C

5.9 C

0 W/m

0.00 mm

21:30

6.2 C

997.3 hpa

77 %

16.1 km/h aus 115

29.0 km/h aus WSW

2.4 C

2.7 C

2.9 C

5.9 C

0 W/m

0.00 mm

21:35

6.2 C

997.3 hpa

77 %

17.7 km/h aus 117

27.4 km/h aus WSW

2.5 C

2.5 C

2.7 C

6.0 C

0 W/m

0.00 mm

21:40

6.2 C

997.3 hpa

77 %

17.7 km/h aus 117

32.2 km/h aus SW

2.5 C

2.5 C

2.7 C

6.0 C

0 W/m

0.00 mm

21:45

6.2 C

997.4 hpa

77 %

17.7 km/h aus 117

33.8 km/h aus SW

2.5 C

2.5 C

2.7 C

6.0 C

0 W/m

0.00 mm

21:50

6.2 C

997.4 hpa

77 %

19.3 km/h aus 117

32.2 km/h aus SSW

2.5 C

2.3 C

2.5 C

6.0 C

0 W/m

0.00 mm

21:55

6.2 C

997.4 hpa

77 %

20.9 km/h aus 117

33.8 km/h aus SW

2.5 C

2.1 C

2.3 C

6.0 C

0 W/m

0.00 mm

22:00

6.2 C

997.6 hpa

77 %

17.7 km/h aus 116

30.6 km/h aus SSW

2.5 C

2.5 C

2.7 C

6.0 C

0 W/m

0.00 mm

22:05

6.2 C

997.6 hpa

77 %

16.1 km/h aus 116

29.0 km/h aus SSW

2.5 C

2.7 C

2.9 C

6.0 C

0 W/m

0.00 mm

22:10

6.2 C

997.6 hpa

77 %

17.7 km/h aus 117

30.6 km/h aus SSW

2.5 C

2.5 C

2.7 C

6.0 C

0 W/m

0.00 mm

22:15

6.2 C

997.8 hpa

77 %

16.1 km/h aus 117

29.0 km/h aus SSW

2.5 C

2.7 C

2.9 C

6.0 C

0 W/m

0.00 mm

22:20

6.2 C

997.8 hpa

78 %

17.7 km/h aus 117

29.0 km/h aus SW

2.7 C

2.6 C

2.7 C

6.1 C

0 W/m

0.00 mm

22:25

6.2 C

997.8 hpa

78 %

19.3 km/h aus 116

29.0 km/h aus SSW

2.6 C

2.3 C

2.4 C

6.0 C

0 W/m

0.00 mm

22:30

6.2 C

997.8 hpa

78 %

17.7 km/h aus 117

37.0 km/h aus SSW

2.6 C

2.5 C

2.7 C

6.0 C

0 W/m

0.00 mm

22:35

6.1 C

997.8 hpa

78 %

16.1 km/h aus 116

27.4 km/h aus SW

2.6 C

2.7 C

2.8 C

5.9 C

0 W/m

0.00 mm

22:40

6.1 C

997.8 hpa

78 %

14.5 km/h aus 117

25.7 km/h aus SSW

2.5 C

2.9 C

3.1 C

5.9 C

0 W/m

0.00 mm

22:45

6.1 C

997.8 hpa

78 %

16.1 km/h aus 117

27.4 km/h aus SW

2.5 C

2.6 C

2.8 C

5.9 C

0 W/m

0.00 mm

22:50

6.1 C

997.8 hpa

78 %

9.7 km/h aus 116

19.3 km/h aus SW

2.5 C

3.8 C

4.0 C

5.9 C

0 W/m

0.00 mm

22:55

6.1 C

997.8 hpa

78 %

11.3 km/h aus 117

19.3 km/h aus SW

2.5 C

3.6 C

3.7 C

5.9 C

0 W/m

0.00 mm

23:00

6.1 C

998.0 hpa

78 %

12.9 km/h aus 117

20.9 km/h aus SSW

2.6 C

3.3 C

3.4 C

5.9 C

0 W/m

0.00 mm

23:05

6.1 C

998.0 hpa

78 %

9.7 km/h aus 116

17.7 km/h aus SW

2.6 C

3.9 C

4.1 C

5.9 C

0 W/m

0.00 mm

23:10

6.2 C

998.0 hpa

78 %

11.3 km/h aus 117

22.5 km/h aus SW

2.6 C

3.7 C

3.8 C

6.0 C

0 W/m

0.00 mm

23:15

6.2 C

998.1 hpa

78 %

11.3 km/h aus 116

22.5 km/h aus SW

2.6 C

3.7 C

3.8 C

6.0 C

0 W/m

0.00 mm

23:20

6.2 C

998.1 hpa

78 %

14.5 km/h aus 117

24.1 km/h aus SSW

2.7 C

3.1 C

3.2 C

6.1 C

0 W/m

0.00 mm

23:25

6.2 C

998.1 hpa

78 %

12.9 km/h aus 117

20.9 km/h aus SSW

2.7 C

3.4 C

3.6 C

6.1 C

0 W/m

0.00 mm

23:30

6.3 C

998.1 hpa

78 %

12.9 km/h aus 117

19.3 km/h aus S

2.7 C

3.5 C

3.7 C

6.1 C

0 W/m

0.00 mm

23:35

6.3 C

998.1 hpa

78 %

9.7 km/h aus 117

17.7 km/h aus SW

2.7 C

4.1 C

4.3 C

6.1 C

0 W/m

0.00 mm

23:40

6.3 C

998.1 hpa

78 %

12.9 km/h aus 115

20.9 km/h aus SSW

2.7 C

3.5 C

3.7 C

6.1 C

0 W/m

0.00 mm

23:45

6.2 C

998.0 hpa

78 %

12.9 km/h aus 116

22.5 km/h aus S

2.7 C

3.4 C

3.6 C

6.1 C

0 W/m

0.00 mm

23:50

6.2 C

998.0 hpa

78 %

9.7 km/h aus 117

17.7 km/h aus S

2.7 C

4.0 C

4.2 C

6.1 C

0 W/m

0.00 mm

23:55

6.2 C

998.0 hpa

78 %

14.5 km/h aus 117

30.6 km/h aus SSW

2.7 C

3.1 C

3.2 C

6.1 C

0 W/m

0.00 mm